START_TIME,STEP,MOV.,M29,t_acc.,H22,t_acc.,H26,t_acc.,H30,t_acc.
1986-01-26 15:00:33.180 ,0,0,0.,24.0,0.,24.0,0.,24.0,0.,24.0
1986-01-26 15:00:57.180 ,1,1,0.,24.0,0.,24.0,0.,24.0,0.,24.0
1986-01-26 15:01:21.180 ,1,0,0.,24.0,0.,24.0,0.,24.0,0.,24.0
1986-01-26 15:01:45.180 ,2,1,0.,24.0,0.,24.0,0.,24.0,0.,24.0
1986-01-26 15:02:09.180 ,2,0,0.,24.0,0.,24.0,0.,24.0,0.,24.0
1986-01-26 15:02:33.180 ,3,1,0.,24.0,0.,24.0,0.,24.0,0.,24.0
1986-01-26 15:02:57.180 ,3,0,0.,24.0,0.,24.0,0.,24.0,0.,24.0
1986-01-26 15:03:21.180 ,4,1,0.,24.0,0.,24.0,0.,24.0,0.,24.0
1986-01-26 15:03:45.180 ,4,0,0.,24.0,0.,24.0,0.,24.0,0.,24.0
1986-01-26 15:04:09.180 ,5,1,0.,24.0,0.,24.0,0.,24.0,0.,24.0
1986-01-26 15:04:33.180 ,5,0,0.,24.0,0.,24.0,0.,24.0,0.,24.0
1986-01-26 15:04:57.180 ,6,1,0.,24.0,0.,24.0,0.,24.0,0.,24.0
1986-01-26 15:05:21.180 ,6,0,0.,24.0,0.,24.0,0.,24.0,0.,24.0
1986-01-26 15:05:45.180 ,7,1,0.,24.0,0.,24.0,0.,24.0,0.,24.0
1986-01-26 15:06:09.180 ,7,0,0.,24.0,0.,24.0,0.,24.0,0.,24.0
1986-01-26 15:06:33.180 ,7,1,0.,24.0,0.,24.0,0.,24.0,0.,24.0
1986-01-26 15:06:57.180 ,7,0,0.,24.0,0.,24.0,0.,24.0,0.,24.0
1986-01-26 15:07:21.180 ,6,1,0.,24.0,0.,24.0,0.,24.0,0.,24.0
1986-01-26 15:07:45.180 ,0,0,0.,24.0,0.,24.0,0.,24.0,0.,24.0
1986-01-26 15:12:19.980 ,0,0,,0,,0,,0,,0
1986-01-26 15:12:33.180 ,0,0,0.,24.0,0.,24.0,0.,24.0,0.,24.0
1986-01-26 15:12:57.180 ,0,1,0.,24.0,0.,24.0,0.,24.0,0.,24.0
1986-01-26 15:13:21.180 ,0,0,0.,24.0,0.,24.0,0.,24.0,0.,24.0
1986-01-26 15:13:45.180 ,1,1,0.,24.0,0.,24.0,0.,24.0,0.,24.0
1986-01-26 15:14:09.180 ,1,0,0.,24.0,0.,24.0,0.,24.0,0.,24.0
1986-01-26 15:14:33.180 ,2,1,0.,24.0,0.,24.0,0.,24.0,0.,24.0
1986-01-26 15:14:57.180 ,2,0,0.,24.0,0.,24.0,0.,24.0,0.,24.0
1986-01-26 15:15:21.180 ,3,1,0.,24.0,0.,24.0,0.,24.0,0.,24.0
1986-01-26 15:15:45.180 ,3,0,0.,24.0,0.,24.0,0.,24.0,0.,24.0
1986-01-26 15:16:09.180 ,4,1,0.,24.0,0.,24.0,0.,24.0,0.,24.0
1986-01-26 15:16:33.180 ,4,0,0.,24.0,0.,24.0,0.,24.0,0.,24.0
1986-01-26 15:16:57.180 ,0,0,0.,24.0,0.,24.0,0.,24.0,0.,24.0
1986-01-26 15:17:21.180 ,0,0,,0,,0,,0,,0
1986-01-26 15:17:21.180 ,5,0,0.,24.0,0.,24.0,0.,24.0,0.,24.0
1986-01-26 15:17:45.180 ,6,1,0.,24.0,0.,24.0,0.,24.0,0.,24.0
1986-01-26 15:18:09.180 ,6,0,0.,24.0,0.,24.0,0.,24.0,0.,24.0
1986-01-26 15:18:33.180 ,7,1,0.,24.0,0.,24.0,0.,24.0,0.,24.0
1986-01-26 15:18:57.180 ,7,0,0.,24.0,0.,24.0,0.,24.0,0.,24.0
1986-01-26 15:19:21.180 ,7,1,0.,24.0,0.,24.0,0.,24.0,0.,24.0
1986-01-26 15:19:45.180 ,7,0,0.,24.0,0.,24.0,0.,24.0,0.,24.0
1986-01-26 15:20:09.180 ,6,1,0.,24.0,0.,24.0,0.,24.0,0.,24.0
1986-01-26 15:20:33.180 ,6,0,0.,24.0,0.,24.0,0.,24.0,0.,24.0
1986-01-26 15:20:57.180 ,5,1,0.,24.0,0.,24.0,0.,24.0,0.,24.0
1986-01-26 15:21:21.180 ,5,0,0.,24.0,0.,24.0,0.,24.0,0.,24.0
1986-01-26 15:21:45.180 ,4,1,0.,24.0,0.,24.0,0.,24.0,0.,24.0
1986-01-26 15:22:09.180 ,4,0,0.,24.0,0.,24.0,0.,24.0,0.,24.0
1986-01-26 15:22:33.180 ,3,1,0.,24.0,0.,24.0,0.,24.0,0.,24.0
1986-01-26 15:22:57.180 ,3,0,0.,24.0,0.,24.0,0.,24.0,0.,24.0
1986-01-26 15:23:21.180 ,2,1,0.,24.0,0.,24.0,0.,24.0,0.,24.0
1986-01-26 15:23:45.180 ,2,0,0.,24.0,0.,24.0,0.,24.0,0.,24.0
1986-01-26 15:24:09.180 ,1,1,0.,24.0,0.,24.0,0.,24.0,0.,24.0
1986-01-26 15:24:33.180 ,1,0,0.,24.0,0.,24.0,0.,24.0,0.,24.0
1986-01-26 15:24:57.180 ,0,1,0.,24.0,0.,24.0,0.,24.0,0.,24.0
1986-01-26 15:25:21.180 ,0,0,0.,24.0,0.,24.0,0.,24.0,0.,24.0
1986-01-26 15:25:45.180 ,0,1,0.,24.0,0.,24.0,0.,24.0,0.,24.0
1986-01-26 15:26:09.180 ,0,0,0.,24.0,0.,24.0,0.,24.0,0.,24.0
1986-01-26 15:26:33.180 ,1,1,0.,24.0,0.,24.0,0.,24.0,0.,24.0
1986-01-26 15:26:57.180 ,1,0,0.,24.0,0.,24.0,0.,24.0,0.,24.0
1986-01-26 15:27:21.180 ,2,1,0.,24.0,0.,24.0,0.,24.0,0.,24.0
1986-01-26 15:27:45.180 ,2,0,0.,24.0,0.,24.0,0.,24.0,0.,24.0
1986-01-26 15:28:09.180 ,3,1,0.,24.0,0.,24.0,0.,24.0,0.,24.0
1986-01-26 15:28:33.180 ,3,0,0.,24.0,0.,24.0,0.,24.0,0.,24.0
1986-01-26 15:28:57.180 ,4,1,0.,24.0,0.,24.0,0.,24.0,0.,24.0
1986-01-26 15:29:21.180 ,4,0,0.,24.0,0.,24.0,0.,24.0,0.,24.0
1986-01-26 15:29:45.180 ,5,1,0.,24.0,0.,24.0,0.,24.0,0.,24.0
1986-01-26 15:30:09.180 ,5,0,0.,24.0,0.,24.0,0.,24.0,0.,24.0
1986-01-26 15:30:33.180 ,6,1,0.,24.0,0.,24.0,0.,24.0,0.,24.0
1986-01-26 15:30:57.180 ,6,0,0.,24.0,0.,24.0,0.,24.0,0.,24.0
1986-01-26 15:31:21.180 ,7,1,0.,24.0,0.,24.0,0.,24.0,0.,24.0
1986-01-26 15:31:45.180 ,7,0,0.,24.0,0.,24.0,0.,24.0,0.,24.0
1986-01-26 15:32:09.180 ,7,1,0.,24.0,0.,24.0,0.,24.0,0.,24.0
1986-01-26 15:32:33.180 ,7,0,0.,24.0,0.,24.0,0.,24.0,0.,24.0
1986-01-26 15:32:57.180 ,6,1,0.,24.0,0.,24.0,0.,24.0,0.,24.0
1986-01-26 15:33:21.180 ,6,0,0.,24.0,0.,24.0,0.,24.0,0.,24.0
1986-01-26 15:33:45.180 ,5,1,0.,24.0,0.,24.0,0.,24.0,0.,24.0
1986-01-26 15:34:09.180 ,5,0,0.,24.0,0.,24.0,0.,24.0,0.,24.0
1986-01-26 15:34:33.180 ,4,1,0.,24.0,0.,24.0,0.,24.0,0.,24.0
1986-01-26 15:34:57.180 ,4,0,0.,24.0,0.,24.0,0.,24.0,0.,24.0
1986-01-26 15:35:21.180 ,3,1,0.,24.0,0.,24.0,0.,24.0,0.,24.0
1986-01-26 15:35:45.180 ,3,0,0.,24.0,0.,24.0,0.,24.0,0.,24.0
1986-01-26 15:36:09.180 ,2,1,0.,24.0,0.,24.0,0.,24.0,0.,24.0
1986-01-26 15:36:33.180 ,2,0,0.,24.0,0.,24.0,0.,24.0,0.,24.0
1986-01-26 15:36:57.180 ,1,1,0.,24.0,0.,24.0,0.,24.0,0.,24.0
1986-01-26 15:37:21.180 ,1,0,0.,24.0,0.,24.0,0.,24.0,0.,24.0
1986-01-26 15:37:45.180 ,0,1,0.,24.0,0.,24.0,0.,24.0,0.,24.0
1986-01-26 15:38:09.180 ,0,0,0.,24.0,0.,24.0,0.,24.0,0.,24.0
1986-01-26 15:38:33.180 ,0,1,0.,24.0,0.,24.0,0.,24.0,0.,24.0
1986-01-26 15:38:57.180 ,0,0,0.,24.0,0.,24.0,0.,24.0,0.,24.0
1986-01-26 15:39:21.180 ,1,1,0.,24.0,0.,24.0,0.,24.0,0.,24.0
1986-01-26 15:39:45.180 ,1,0,0.,24.0,0.,24.0,0.,24.0,0.,24.0
1986-01-26 15:40:09.180 ,2,1,0.,24.0,0.,24.0,0.,24.0,0.,24.0
1986-01-26 15:40:33.180 ,2,0,0.,24.0,0.,24.0,0.,24.0,0.,24.0
1986-01-26 15:40:57.180 ,3,1,0.,24.0,0.,24.0,0.,24.0,0.,24.0
1986-01-26 15:41:21.180 ,3,0,0.,24.0,0.,24.0,0.,24.0,0.,24.0
1986-01-26 15:41:45.180 ,4,1,0.,24.0,0.,24.0,0.,24.0,0.,24.0
1986-01-26 15:42:09.180 ,4,0,0.,24.0,0.,24.0,0.,24.0,0.,24.0
1986-01-26 15:42:33.180 ,5,1,0.,24.0,0.,24.0,0.,24.0,0.,24.0
1986-01-26 15:42:57.180 ,5,0,0.,24.0,0.,24.0,0.,24.0,0.,24.0
1986-01-26 15:43:21.180 ,6,1,0.,24.0,0.,24.0,0.,24.0,0.,24.0
1986-01-26 15:43:45.180 ,6,0,0.,24.0,0.,24.0,0.,24.0,0.,24.0
1986-01-26 15:44:09.180 ,7,1,0.,24.0,0.,24.0,0.,24.0,0.,24.0
1986-01-26 15:44:33.180 ,7,0,0.,24.0,0.,24.0,0.,24.0,0.,24.0
1986-01-26 15:44:57.180 ,7,1,0.,24.0,0.,24.0,0.,24.0,0.,24.0
1986-01-26 15:45:21.180 ,7,0,0.,24.0,0.,24.0,0.,24.0,0.,24.0
1986-01-26 15:45:45.180 ,6,1,0.,24.0,0.,24.0,0.,24.0,0.,24.0
1986-01-26 15:46:09.180 ,0,0,0.,24.0,0.,24.0,0.,24.0,0.,24.0
1986-01-26 15:46:29.580 ,0,0,,0,,0,,0,,0
1986-01-26 15:46:31.380 ,0,0,,0,,0,,0,,0
1986-01-26 15:46:33.180 ,5,1,0.,24.0,0.,24.0,0.,24.0,0.,24.0
1986-01-26 15:46:57.180 ,0,0,,0,,0,,0,,0
1986-01-26 15:47:06.780 ,0,0,,0,,0,,0,,0
1986-01-26 15:47:21.180 ,4,1,0.,24.0,0.,24.0,0.,24.0,0.,24.0
1986-01-26 15:47:45.180 ,4,0,0.,24.0,0.,24.0,0.,24.0,0.,24.0
1986-01-26 15:48:09.180 ,3,1,0.,24.0,0.,24.0,0.,24.0,0.,24.0
1986-01-26 15:48:33.180 ,3,0,0.,24.0,0.,24.0,0.,24.0,0.,24.0
1986-01-26 15:48:57.180 ,2,1,0.,24.0,0.,24.0,0.,24.0,0.,24.0
1986-01-26 15:49:21.180 ,2,0,0.,24.0,0.,24.0,0.,24.0,0.,24.0
1986-01-26 15:49:45.180 ,1,1,0.,24.0,0.,24.0,0.,24.0,0.,24.0
1986-01-26 15:50:09.180 ,1,0,0.,24.0,0.,24.0,0.,24.0,0.,24.0
1986-01-26 15:50:33.180 ,0,1,0.,24.0,0.,24.0,0.,24.0,0.,24.0
1986-01-26 15:50:57.180 ,0,0,0.,24.0,0.,24.0,0.,24.0,0.,24.0
1986-01-26 15:51:21.180 ,0,1,0.,24.0,0.,24.0,0.,24.0,0.,24.0
1986-01-26 15:51:45.180 ,0,0,0.,24.0,0.,24.0,0.,24.0,0.,24.0
1986-01-26 15:52:09.180 ,1,1,0.,24.0,0.,24.0,0.,24.0,0.,24.0
1986-01-26 15:52:33.180 ,1,0,0.,24.0,0.,24.0,0.,24.0,0.,24.0
1986-01-26 15:52:57.180 ,2,1,0.,24.0,0.,24.0,0.,24.0,0.,24.0
1986-01-26 15:53:21.180 ,2,0,0.,24.0,0.,24.0,0.,24.0,0.,24.0
1986-01-26 15:53:45.180 ,3,1,0.,24.0,0.,24.0,0.,24.0,0.,24.0
1986-01-26 15:54:09.180 ,3,0,0.,24.0,0.,24.0,0.,24.0,0.,24.0
1986-01-26 15:54:33.180 ,4,1,0.,24.0,0.,24.0,0.,24.0,0.,24.0
1986-01-26 15:54:57.180 ,4,0,0.,24.0,0.,24.0,0.,24.0,0.,24.0
1986-01-26 15:55:21.180 ,5,1,0.,24.0,0.,24.0,0.,24.0,0.,24.0
1986-01-26 15:55:45.180 ,5,0,0.,24.0,0.,24.0,0.,24.0,0.,24.0
1986-01-26 15:56:09.180 ,6,1,0.,24.0,0.,24.0,0.,24.0,0.,24.0
1986-01-26 15:56:33.180 ,6,0,0.,24.0,0.,24.0,0.,24.0,0.,24.0
1986-01-26 15:56:57.180 ,7,1,0.,24.0,0.,24.0,0.,24.0,0.,24.0
1986-01-26 15:57:21.180 ,7,0,0.,24.0,0.,24.0,0.,24.0,0.,24.0
1986-01-26 15:57:45.180 ,7,1,0.,24.0,0.,24.0,0.,24.0,0.,24.0
1986-01-26 15:58:09.180 ,7,0,0.,24.0,0.,24.0,0.,24.0,0.,24.0
1986-01-26 15:58:33.180 ,6,1,0.,24.0,0.,24.0,0.,24.0,0.,24.0
1986-01-26 15:58:57.180 ,6,0,0.,24.0,0.,24.0,0.,24.0,0.,24.0
1986-01-26 15:59:21.180 ,5,1,0.,24.0,0.,24.0,0.,24.0,0.,24.0
1986-01-26 15:59:45.180 ,5,0,0.,24.0,0.,24.0,0.,24.0,0.,24.0
1986-01-26 16:00:09.180 ,4,1,0.,24.0,0.,24.0,0.,24.0,0.,24.0
1986-01-26 16:00:33.180 ,4,0,0.,24.0,0.,24.0,0.,24.0,0.,24.0
1986-01-26 16:00:57.180 ,3,1,0.,24.0,0.,24.0,0.,24.0,0.,24.0
1986-01-26 16:01:21.180 ,3,0,0.,24.0,0.,24.0,0.,24.0,0.,24.0
1986-01-26 16:01:45.180 ,2,1,0.,24.0,0.,24.0,0.,24.0,0.,24.0
1986-01-26 16:02:09.180 ,2,0,0.,24.0,0.,24.0,0.,24.0,0.,24.0
1986-01-26 16:02:33.180 ,1,1,0.,24.0,0.,24.0,0.,24.0,0.,24.0
1986-01-26 16:02:57.180 ,1,0,0.,24.0,0.,24.0,0.,24.0,0.,24.0
1986-01-26 16:03:21.180 ,0,1,0.,24.0,0.,24.0,0.,24.0,0.,24.0
1986-01-26 16:03:45.180 ,0,0,0.,24.0,0.,24.0,0.,24.0,0.,24.0
1986-01-26 16:04:09.180 ,0,1,0.,24.0,0.,24.0,0.,24.0,0.,24.0
1986-01-26 16:04:33.180 ,0,0,0.,24.0,0.,24.0,0.,24.0,0.,24.0
1986-01-26 16:04:57.180 ,1,1,0.,24.0,0.,24.0,0.,24.0,0.,24.0
1986-01-26 16:05:21.180 ,1,0,0.,24.0,0.,24.0,0.,24.0,0.,24.0
1986-01-26 16:05:45.180 ,2,1,0.,24.0,0.,24.0,0.,24.0,0.,24.0
1986-01-26 16:06:09.180 ,2,0,0.,24.0,0.,24.0,0.,24.0,0.,24.0
1986-01-26 16:06:33.180 ,3,1,0.,24.0,0.,24.0,0.,24.0,0.,24.0
1986-01-26 16:06:57.180 ,3,0,0.,24.0,0.,24.0,0.,24.0,0.,24.0
1986-01-26 16:07:21.180 ,4,1,0.,24.0,0.,24.0,0.,24.0,0.,24.0
1986-01-26 16:07:45.180 ,4,0,0.,24.0,0.,24.0,0.,24.0,0.,24.0
1986-01-26 16:08:09.180 ,5,1,0.,24.0,0.,24.0,0.,24.0,0.,24.0
1986-01-26 16:08:33.180 ,5,0,0.,24.0,0.,24.0,0.,24.0,0.,24.0
1986-01-26 16:08:57.180 ,6,1,0.,24.0,0.,24.0,0.,24.0,0.,24.0
1986-01-26 16:09:21.180 ,6,0,0.,24.0,0.,24.0,0.,24.0,0.,24.0
1986-01-26 16:09:45.180 ,7,1,0.,24.0,0.,24.0,0.,24.0,0.,24.0
1986-01-26 16:10:09.180 ,7,0,0.,24.0,0.,24.0,0.,24.0,0.,24.0
1986-01-26 16:10:33.180 ,7,1,0.,24.0,0.,24.0,0.,24.0,0.,24.0
1986-01-26 16:10:57.180 ,7,0,0.,24.0,0.,24.0,0.,24.0,0.,24.0
1986-01-26 16:11:21.180 ,6,1,0.,24.0,0.,24.0,0.,24.0,0.,24.0
1986-01-26 16:11:45.180 ,6,0,0.,24.0,0.,24.0,0.,24.0,0.,24.0
1986-01-26 16:12:09.180 ,5,1,0.,24.0,0.,24.0,0.,24.0,0.,24.0
1986-01-26 16:12:33.180 ,5,0,0.,24.0,0.,24.0,0.,24.0,0.,24.0
1986-01-26 16:12:57.180 ,4,1,0.,24.0,0.,24.0,0.,24.0,0.,24.0
1986-01-26 16:13:21.180 ,4,0,0.,24.0,0.,24.0,0.,24.0,0.,24.0
1986-01-26 16:13:45.180 ,3,1,0.,24.0,0.,24.0,0.,24.0,0.,24.0
1986-01-26 16:14:09.180 ,3,0,0.,24.0,0.,24.0,0.,24.0,0.,24.0
1986-01-26 16:14:33.180 ,2,1,0.,24.0,0.,24.0,0.,24.0,0.,24.0
1986-01-26 16:14:57.180 ,2,0,0.,24.0,0.,24.0,0.,24.0,0.,24.0
1986-01-26 16:15:21.180 ,1,1,0.,24.0,0.,24.0,0.,24.0,0.,24.0
1986-01-26 16:15:45.180 ,1,0,0.,24.0,0.,24.0,0.,24.0,0.,24.0
1986-01-26 16:16:09.180 ,0,1,0.,24.0,0.,24.0,0.,24.0,0.,24.0
1986-01-26 16:16:33.180 ,0,0,0.,24.0,0.,24.0,0.,24.0,0.,24.0
1986-01-26 16:16:57.180 ,0,1,0.,24.0,0.,24.0,0.,24.0,0.,24.0
1986-01-26 16:17:21.180 ,0,0,0.,24.0,0.,24.0,0.,24.0,0.,24.0
1986-01-26 16:17:45.180 ,1,1,0.,24.0,0.,24.0,0.,24.0,0.,24.0
1986-01-26 16:18:09.180 ,1,0,0.,24.0,0.,24.0,0.,24.0,0.,24.0
1986-01-26 16:18:33.180 ,2,1,0.,24.0,0.,24.0,0.,24.0,0.,24.0
1986-01-26 16:18:57.180 ,2,0,0.,24.0,0.,24.0,0.,24.0,0.,24.0
1986-01-26 16:19:21.180 ,3,1,0.,24.0,0.,24.0,0.,24.0,0.,24.0
1986-01-26 16:19:45.180 ,3,0,0.,24.0,0.,24.0,0.,24.0,0.,24.0
1986-01-26 16:20:09.180 ,4,1,0.,24.0,0.,24.0,0.,24.0,0.,24.0
1986-01-26 16:20:33.180 ,4,0,0.,24.0,0.,24.0,0.,24.0,0.,24.0
1986-01-26 16:20:57.180 ,5,1,0.,24.0,0.,24.0,0.,24.0,0.,24.0
1986-01-26 16:21:21.180 ,5,0,0.,24.0,0.,24.0,0.,24.0,0.,24.0
1986-01-26 16:21:45.180 ,6,1,0.,24.0,0.,24.0,0.,24.0,0.,24.0
1986-01-26 16:22:09.180 ,0,0,0.,24.0,0.,24.0,0.,24.0,0.,24.0
1986-01-26 16:25:06.180 ,0,0,0.,24.0,0.,24.0,0.,24.0,0.,24.0
1986-01-26 16:25:21.180 ,0,0,0.,24.0,0.,24.0,0.,24.0,0.,24.0
1986-01-26 16:25:45.180 ,4,1,0.,24.0,0.,24.0,0.,24.0,0.,24.0
1986-01-26 16:26:09.180 ,4,0,0.,24.0,0.,24.0,0.,24.0,0.,24.0
1986-01-26 16:26:33.180 ,3,0,,0,,0,,0,,0
1986-01-26 16:26:57.180 ,3,0,0.,24.0,0.,24.0,0.,24.0,0.,24.0
1986-01-26 16:27:21.180 ,2,1,0.,24.0,0.,24.0,0.,24.0,0.,24.0
1986-01-26 16:27:45.180 ,2,0,0.,24.0,0.,24.0,0.,24.0,0.,24.0
1986-01-26 16:28:09.180 ,0,0,,0,,0,,0,,0
1986-01-26 16:28:33.180 ,0,0,,0,,0,,0,,0
1986-01-26 16:28:33.180 ,1,0,0.,24.0,0.,24.0,0.,24.0,0.,24.0
1986-01-26 16:28:57.180 ,0,1,0.,24.0,0.,24.0,0.,24.0,0.,24.0
1986-01-26 16:29:21.180 ,0,0,0.,24.0,0.,24.0,0.,24.0,0.,24.0
1986-01-26 16:29:45.180 ,0,1,0.,24.0,0.,24.0,0.,24.0,0.,24.0
1986-01-26 16:30:09.180 ,0,0,0.,24.0,0.,24.0,0.,24.0,0.,24.0
1986-01-26 16:30:33.180 ,1,1,0.,24.0,0.,24.0,0.,24.0,0.,24.0
1986-01-26 16:30:57.180 ,1,0,0.,24.0,0.,24.0,0.,24.0,0.,24.0
1986-01-26 16:31:21.180 ,2,1,0.,24.0,0.,24.0,0.,24.0,0.,24.0
1986-01-26 16:31:45.180 ,2,0,0.,24.0,0.,24.0,0.,24.0,0.,24.0
1986-01-26 16:32:09.180 ,3,1,0.,24.0,0.,24.0,0.,24.0,0.,24.0
1986-01-26 16:32:33.180 ,3,0,0.,24.0,0.,24.0,0.,24.0,0.,24.0
1986-01-26 16:32:57.180 ,4,1,0.,24.0,0.,24.0,0.,24.0,0.,24.0
1986-01-26 16:33:21.180 ,4,0,0.,24.0,0.,24.0,0.,24.0,0.,24.0
1986-01-26 16:33:45.180 ,5,1,0.,24.0,0.,24.0,0.,24.0,0.,24.0
1986-01-26 16:34:09.180 ,5,0,0.,24.0,0.,24.0,0.,24.0,0.,24.0
1986-01-26 16:34:33.180 ,6,1,0.,24.0,0.,24.0,0.,24.0,0.,24.0
1986-01-26 16:34:57.180 ,6,0,0.,24.0,0.,24.0,0.,24.0,0.,24.0
1986-01-26 16:35:21.180 ,7,1,0.,24.0,0.,24.0,0.,24.0,0.,24.0
1986-01-26 16:35:45.180 ,7,0,0.,24.0,0.,24.0,0.,24.0,0.,24.0
1986-01-26 16:36:09.180 ,7,1,0.,24.0,0.,24.0,0.,24.0,0.,24.0
1986-01-26 16:36:33.180 ,7,0,0.,24.0,0.,24.0,0.,24.0,0.,24.0
1986-01-26 16:36:57.180 ,6,1,0.,24.0,0.,24.0,0.,24.0,0.,24.0
1986-01-26 16:37:21.180 ,6,0,0.,24.0,0.,24.0,0.,24.0,0.,24.0
1986-01-26 16:37:45.180 ,5,1,0.,24.0,0.,24.0,0.,24.0,0.,24.0
1986-01-26 16:38:09.180 ,5,0,0.,24.0,0.,24.0,0.,24.0,0.,24.0
1986-01-26 16:38:33.180 ,4,1,0.,24.0,0.,24.0,0.,24.0,0.,24.0
1986-01-26 16:38:57.180 ,4,0,0.,24.0,0.,24.0,0.,24.0,0.,24.0
1986-01-26 16:39:21.180 ,3,1,0.,24.0,0.,24.0,0.,24.0,0.,24.0
1986-01-26 16:39:45.180 ,3,0,0.,24.0,0.,24.0,0.,24.0,0.,24.0
1986-01-26 16:40:09.180 ,2,1,0.,24.0,0.,24.0,0.,24.0,0.,24.0
1986-01-26 16:40:33.180 ,2,0,0.,24.0,0.,24.0,0.,24.0,0.,24.0
1986-01-26 16:40:57.180 ,1,1,0.,24.0,0.,24.0,0.,24.0,0.,24.0
1986-01-26 16:41:21.180 ,1,0,0.,24.0,0.,24.0,0.,24.0,0.,24.0
1986-01-26 16:41:45.180 ,0,1,0.,24.0,0.,24.0,0.,24.0,0.,24.0
1986-01-26 16:42:09.180 ,0,0,0.,24.0,0.,24.0,0.,24.0,0.,24.0
1986-01-26 16:42:33.180 ,0,1,0.,24.0,0.,24.0,0.,24.0,0.,24.0
1986-01-26 16:42:57.180 ,0,0,0.,24.0,0.,24.0,0.,24.0,0.,24.0
1986-01-26 16:43:21.180 ,1,1,0.,24.0,0.,24.0,0.,24.0,0.,24.0
1986-01-26 16:43:45.180 ,1,0,0.,24.0,0.,24.0,0.,24.0,0.,24.0
1986-01-26 16:44:09.180 ,2,1,0.,24.0,0.,24.0,0.,24.0,0.,24.0
1986-01-26 16:44:33.180 ,2,0,0.,24.0,0.,24.0,0.,24.0,0.,24.0
1986-01-26 16:44:57.180 ,3,1,0.,24.0,0.,24.0,0.,24.0,0.,24.0
1986-01-26 16:45:21.180 ,3,0,0.,24.0,0.,24.0,0.,24.0,0.,24.0
1986-01-26 16:45:45.180 ,4,1,0.,24.0,0.,24.0,0.,24.0,0.,24.0
1986-01-26 16:46:09.180 ,4,0,0.,24.0,0.,24.0,0.,24.0,0.,24.0
1986-01-26 16:46:33.180 ,5,1,0.,24.0,0.,24.0,0.,24.0,0.,24.0
1986-01-26 16:46:57.180 ,5,0,0.,24.0,0.,24.0,0.,24.0,0.,24.0
1986-01-26 16:47:21.180 ,6,1,0.,24.0,0.,24.0,0.,24.0,0.,24.0
1986-01-26 16:47:45.180 ,6,0,0.,24.0,0.,24.0,0.,24.0,0.,24.0
1986-01-26 16:48:09.180 ,7,1,0.,24.0,0.,24.0,0.,24.0,0.,24.0
1986-01-26 16:48:33.180 ,7,0,0.,24.0,0.,24.0,0.,24.0,0.,24.0
1986-01-26 16:48:57.180 ,7,1,0.,24.0,0.,24.0,0.,24.0,0.,24.0
1986-01-26 16:49:21.180 ,7,0,0.,24.0,0.,24.0,0.,24.0,0.,24.0
1986-01-26 16:49:45.180 ,6,1,0.,24.0,0.,24.0,0.,24.0,0.,24.0
1986-01-26 16:50:09.180 ,6,0,0.,24.0,0.,24.0,0.,24.0,0.,24.0
1986-01-26 16:50:33.180 ,5,1,0.,24.0,0.,24.0,0.,24.0,0.,24.0
1986-01-26 16:50:57.180 ,5,0,0.,24.0,0.,24.0,0.,24.0,0.,24.0
1986-01-26 16:51:21.180 ,4,1,0.,24.0,0.,24.0,0.,24.0,0.,24.0
1986-01-26 16:51:45.180 ,4,0,0.,24.0,0.,24.0,0.,24.0,0.,24.0
1986-01-26 16:52:09.180 ,3,1,0.,24.0,0.,24.0,0.,24.0,0.,24.0
1986-01-26 16:52:33.180 ,3,0,0.,24.0,0.,24.0,0.,24.0,0.,24.0
1986-01-26 16:52:57.180 ,2,1,0.,24.0,0.,24.0,0.,24.0,0.,24.0
1986-01-26 16:53:21.180 ,2,0,0.,24.0,0.,24.0,0.,24.0,0.,24.0
1986-01-26 16:53:45.180 ,1,1,0.,24.0,0.,24.0,0.,24.0,0.,24.0
1986-01-26 16:54:09.180 ,1,0,0.,24.0,0.,24.0,0.,24.0,0.,24.0
1986-01-26 16:54:33.180 ,0,1,0.,24.0,0.,24.0,0.,24.0,0.,24.0
1986-01-26 16:54:57.180 ,0,0,0.,24.0,0.,24.0,0.,24.0,0.,24.0
1986-01-26 16:55:21.180 ,0,1,0.,24.0,0.,24.0,0.,24.0,0.,24.0
1986-01-26 16:55:45.180 ,0,0,0.,24.0,0.,24.0,0.,24.0,0.,24.0
1986-01-26 16:56:09.180 ,1,1,0.,24.0,0.,24.0,0.,24.0,0.,24.0
1986-01-26 16:56:33.180 ,1,0,0.,24.0,0.,24.0,0.,24.0,0.,24.0
1986-01-26 16:56:57.170 ,2,1,0.,24.0,0.,24.0,0.,24.0,0.,24.0
1986-01-26 16:57:21.170 ,2,0,0.,24.0,0.,24.0,0.,24.0,0.,24.0
1986-01-26 16:57:45.170 ,3,1,0.,24.0,0.,24.0,0.,24.0,0.,24.0
1986-01-26 16:58:09.170 ,3,0,0.,24.0,0.,24.0,0.,24.0,0.,24.0
1986-01-26 16:58:33.170 ,4,1,0.,24.0,0.,24.0,0.,24.0,0.,24.0
1986-01-26 16:58:57.170 ,4,0,0.,24.0,0.,24.0,0.,24.0,0.,24.0
1986-01-26 16:59:21.170 ,5,1,0.,24.0,0.,24.0,0.,24.0,0.,24.0
1986-01-26 16:59:45.170 ,5,0,0.,24.0,0.,24.0,0.,24.0,0.,24.0
1986-01-26 17:00:09.170 ,6,1,0.,24.0,0.,24.0,0.,24.0,0.,24.0
1986-01-26 17:00:33.180 ,6,0,0.,24.0,0.,24.0,0.,24.0,0.,24.0
1986-01-26 17:00:57.180 ,7,1,0.,24.0,0.,24.0,0.,24.0,0.,24.0
1986-01-26 17:01:21.180 ,7,0,0.,24.0,0.,24.0,0.,24.0,0.,24.0
1986-01-26 17:01:45.180 ,7,1,0.,24.0,0.,24.0,0.,24.0,0.,24.0
1986-01-26 17:02:09.180 ,7,0,0.,24.0,0.,24.0,0.,24.0,0.,24.0
1986-01-26 17:02:33.180 ,6,1,0.,24.0,0.,24.0,0.,24.0,0.,24.0
1986-01-26 17:02:57.180 ,6,0,0.,24.0,0.,24.0,0.,24.0,0.,24.0
1986-01-26 17:03:21.180 ,5,1,0.,24.0,0.,24.0,0.,24.0,0.,24.0
1986-01-26 17:03:45.180 ,5,0,0.,24.0,0.,24.0,0.,24.0,0.,24.0
1986-01-26 17:04:09.180 ,4,1,0.,24.0,0.,24.0,0.,24.0,0.,24.0
1986-01-26 17:04:33.170 ,4,0,0.,24.0,0.,24.0,0.,24.0,0.,24.0
1986-01-26 17:04:57.170 ,3,1,0.,24.0,0.,24.0,0.,24.0,0.,24.0
1986-01-26 17:05:21.170 ,3,0,0.,24.0,0.,24.0,0.,24.0,0.,24.0
1986-01-26 17:05:45.170 ,2,1,0.,24.0,0.,24.0,0.,24.0,0.,24.0
1986-01-26 17:06:09.170 ,2,0,0.,24.0,0.,24.0,0.,24.0,0.,24.0
1986-01-26 17:06:33.170 ,1,1,0.,24.0,0.,24.0,0.,24.0,0.,24.0
1986-01-26 17:06:57.170 ,1,0,0.,24.0,0.,24.0,0.,24.0,0.,24.0
1986-01-26 17:07:21.170 ,0,1,0.,24.0,0.,24.0,0.,24.0,0.,24.0
1986-01-26 17:07:45.170 ,0,0,0.,24.0,0.,24.0,0.,24.0,0.,24.0
1986-01-26 17:08:09.170 ,0,1,0.,24.0,0.,24.0,0.,24.0,0.,24.0
1986-01-26 17:08:33.170 ,0,0,0.,24.0,0.,24.0,0.,24.0,0.,24.0
1986-01-26 17:08:57.180 ,1,1,0.,24.0,0.,24.0,0.,24.0,0.,24.0
1986-01-26 17:09:21.180 ,1,0,0.,24.0,0.,24.0,0.,24.0,0.,24.0
1986-01-26 17:09:45.180 ,2,1,0.,24.0,0.,24.0,0.,24.0,0.,24.0
1986-01-26 17:10:09.180 ,2,0,0.,24.0,0.,24.0,0.,24.0,0.,24.0
1986-01-26 17:10:33.180 ,3,1,0.,24.0,0.,24.0,0.,24.0,0.,24.0
1986-01-26 17:10:57.180 ,3,0,0.,24.0,0.,24.0,0.,24.0,0.,24.0
1986-01-26 17:11:21.180 ,4,1,0.,24.0,0.,24.0,0.,24.0,0.,24.0
1986-01-26 17:11:45.180 ,4,0,0.,24.0,0.,24.0,0.,24.0,0.,24.0
1986-01-26 17:12:09.170 ,5,1,0.,24.0,0.,24.0,0.,24.0,0.,24.0
1986-01-26 17:12:33.170 ,5,0,0.,24.0,0.,24.0,0.,24.0,0.,24.0
1986-01-26 17:12:57.170 ,6,1,0.,24.0,0.,24.0,0.,24.0,0.,24.0
1986-01-26 17:13:21.170 ,6,0,0.,24.0,0.,24.0,0.,24.0,0.,24.0
1986-01-26 17:13:45.170 ,7,1,0.,24.0,0.,24.0,0.,24.0,0.,24.0
1986-01-26 17:14:09.170 ,7,0,0.,24.0,0.,24.0,0.,24.0,0.,24.0
1986-01-26 17:14:33.170 ,7,1,0.,24.0,0.,24.0,0.,24.0,0.,24.0
1986-01-26 17:14:57.170 ,7,0,0.,24.0,0.,24.0,0.,24.0,0.,24.0
1986-01-26 17:15:21.170 ,6,1,0.,24.0,0.,24.0,0.,24.0,0.,24.0
1986-01-26 17:15:45.170 ,6,0,0.,24.0,0.,24.0,0.,24.0,0.,24.0
1986-01-26 17:16:09.170 ,5,1,0.,24.0,0.,24.0,0.,24.0,0.,24.0
1986-01-26 17:16:33.170 ,5,0,0.,24.0,0.,24.0,0.,24.0,0.,24.0
1986-01-26 17:16:57.170 ,4,1,0.,24.0,0.,24.0,0.,24.0,0.,24.0
1986-01-26 17:17:21.170 ,4,0,0.,24.0,0.,24.0,0.,24.0,0.,24.0
1986-01-26 17:17:45.170 ,3,1,0.,24.0,0.,24.0,0.,24.0,0.,24.0
1986-01-26 17:18:09.170 ,3,0,0.,24.0,0.,24.0,0.,24.0,0.,24.0
1986-01-26 17:18:33.170 ,2,1,0.,24.0,0.,24.0,0.,24.0,0.,24.0
1986-01-26 17:18:57.170 ,2,0,0.,24.0,0.,24.0,0.,24.0,0.,24.0
1986-01-26 17:19:21.170 ,1,1,0.,24.0,0.,24.0,0.,24.0,0.,24.0
1986-01-26 17:19:45.170 ,1,0,0.,24.0,0.,24.0,0.,24.0,0.,24.0
1986-01-26 17:20:09.170 ,0,1,0.,24.0,0.,24.0,0.,24.0,0.,24.0
1986-01-26 17:20:33.170 ,0,0,0.,24.0,0.,24.0,0.,24.0,0.,24.0
1986-01-26 17:20:57.170 ,0,1,0.,24.0,0.,24.0,0.,24.0,0.,24.0
1986-01-26 17:21:21.170 ,0,0,0.,24.0,0.,24.0,0.,24.0,0.,24.0
1986-01-26 17:21:45.170 ,1,1,0.,24.0,0.,24.0,0.,24.0,0.,24.0
1986-01-26 17:22:09.170 ,1,0,0.,24.0,0.,24.0,0.,24.0,0.,24.0
1986-01-26 17:22:33.170 ,2,1,0.,24.0,0.,24.0,0.,24.0,0.,24.0
1986-01-26 17:22:57.170 ,2,0,0.,24.0,0.,24.0,0.,24.0,0.,24.0
1986-01-26 17:23:21.170 ,3,1,0.,24.0,0.,24.0,0.,24.0,0.,24.0
1986-01-26 17:23:45.170 ,3,0,0.,24.0,0.,24.0,0.,24.0,0.,24.0
1986-01-26 17:24:09.170 ,4,1,0.,24.0,0.,24.0,0.,24.0,0.,24.0
1986-01-26 17:24:33.170 ,4,0,0.,24.0,0.,24.0,0.,24.0,0.,24.0
1986-01-26 17:24:57.170 ,5,1,0.,24.0,0.,24.0,0.,24.0,0.,24.0
1986-01-26 17:25:21.170 ,5,0,0.,24.0,0.,24.0,0.,24.0,0.,24.0
1986-01-26 17:25:45.170 ,6,1,0.,24.0,0.,24.0,0.,24.0,0.,24.0
1986-01-26 17:26:09.170 ,6,0,0.,24.0,0.,24.0,0.,24.0,0.,24.0
1986-01-26 17:26:33.170 ,7,1,0.,24.0,0.,24.0,0.,24.0,0.,24.0
1986-01-26 17:26:57.170 ,7,0,0.,24.0,0.,24.0,0.,24.0,0.,24.0
1986-01-26 17:27:21.170 ,7,1,0.,24.0,0.,24.0,0.,24.0,0.,24.0
1986-01-26 17:27:45.170 ,7,0,0.,24.0,0.,24.0,0.,24.0,0.,24.0
1986-01-26 17:28:09.170 ,6,1,0.,24.0,0.,24.0,0.,24.0,0.,24.0
1986-01-26 17:28:33.170 ,6,0,0.,24.0,0.,24.0,0.,24.0,0.,24.0
1986-01-26 17:28:57.170 ,5,1,0.,24.0,0.,24.0,0.,24.0,0.,24.0
1986-01-26 17:29:21.170 ,5,0,0.,24.0,0.,24.0,0.,24.0,0.,24.0
1986-01-26 17:29:45.170 ,4,1,0.,24.0,0.,24.0,0.,24.0,0.,24.0
1986-01-26 17:30:09.170 ,4,0,0.,24.0,0.,24.0,0.,24.0,0.,24.0
1986-01-26 17:30:33.170 ,3,1,0.,24.0,0.,24.0,0.,24.0,0.,24.0
1986-01-26 17:30:57.170 ,3,0,0.,24.0,0.,24.0,0.,24.0,0.,24.0
1986-01-26 17:31:21.170 ,2,1,0.,24.0,0.,24.0,0.,24.0,0.,24.0
1986-01-26 17:31:45.170 ,2,0,0.,24.0,0.,24.0,0.,24.0,0.,24.0
1986-01-26 17:32:09.170 ,1,1,0.,24.0,0.,24.0,0.,24.0,0.,24.0
1986-01-26 17:32:33.170 ,1,0,0.,24.0,0.,24.0,0.,24.0,0.,24.0
1986-01-26 17:32:57.170 ,0,1,0.,24.0,0.,24.0,0.,24.0,0.,24.0
1986-01-26 17:33:21.170 ,0,0,0.,24.0,0.,24.0,0.,24.0,0.,24.0
1986-01-26 17:33:45.170 ,0,1,0.,24.0,0.,24.0,0.,24.0,0.,24.0
1986-01-26 17:34:09.170 ,0,0,0.,24.0,0.,24.0,0.,24.0,0.,24.0
1986-01-26 17:34:33.170 ,1,1,0.,24.0,0.,24.0,0.,24.0,0.,24.0
1986-01-26 17:34:57.170 ,1,0,0.,24.0,0.,24.0,0.,24.0,0.,24.0
1986-01-26 17:35:21.170 ,2,1,0.,24.0,0.,24.0,0.,24.0,0.,24.0
1986-01-26 17:35:45.170 ,2,0,0.,24.0,0.,24.0,0.,24.0,0.,24.0
1986-01-26 17:36:09.170 ,3,1,0.,24.0,0.,24.0,0.,24.0,0.,24.0
1986-01-26 17:36:33.170 ,3,0,0.,24.0,0.,24.0,0.,24.0,0.,24.0
1986-01-26 17:36:57.170 ,4,1,0.,24.0,0.,24.0,0.,24.0,0.,24.0
1986-01-26 17:37:21.170 ,4,0,0.,24.0,0.,24.0,0.,24.0,0.,24.0
1986-01-26 17:37:45.170 ,5,1,0.,24.0,0.,24.0,0.,24.0,0.,24.0
1986-01-26 17:38:09.170 ,5,0,0.,24.0,0.,24.0,0.,24.0,0.,24.0
1986-01-26 17:38:33.170 ,6,1,0.,24.0,0.,24.0,0.,24.0,0.,24.0
1986-01-26 17:38:57.170 ,6,0,0.,24.0,0.,24.0,0.,24.0,0.,24.0
1986-01-26 17:39:21.170 ,7,1,0.,24.0,0.,24.0,0.,24.0,0.,24.0
1986-01-26 17:39:45.170 ,7,0,0.,24.0,0.,24.0,0.,24.0,0.,24.0